Precipitable_Water
0.43 0.42 0.41 0.38 0.37 0.36 0.32 0.31 0.25 0.26 0.26 0.27 0.29 0.29 0.28 0.29 0.30 0.29 0.29 0.31 0.34 0.42 0.43 0.42 0.48 0.53 0.55 0.54 0.57 0.54 0.45 0.38 0.36 0.37 0.40 0.43 0.46 0.50 0.53 0.57 0.57 0.61 0.70 0.76
0.33 0.37 0.36 0.31 0.32 0.31 0.29 0.27 0.25 0.24 0.23 0.29 0.29 0.29 0.28 0.26 0.27 0.27 0.29 0.32 0.41 0.49 0.51 0.49 0.54 0.55 0.55 0.56 0.57 0.54 0.44 0.38 0.38 0.37 0.36 0.37 0.41 0.46 0.51 0.53 0.55 0.59 0.60 0.68
0.25 0.30 0.28 0.22 0.24 0.23 0.22 0.21 0.20 0.17 0.20 0.26 0.23 0.23 0.24 0.24 0.27 0.27 0.30 0.37 0.46 0.50 0.53 0.56 0.60 0.60 0.56 0.55 0.56 0.51 0.45 0.40 0.38 0.37 0.36 0.37 0.44 0.50 0.56 0.58 0.59 0.59 0.58 0.62
0.24 0.25 0.15 0.22 0.25 0.22 0.19 0.18 0.18 0.19 0.21 0.23 0.23 0.24 0.25 0.27 0.28 0.31 0.37 0.42 0.48 0.51 0.55 0.57 0.58 0.54 0.54 0.56 0.55 0.50 0.46 0.41 0.39 0.38 0.36 0.38 0.43 0.51 0.57 0.58 0.56 0.58 0.59 0.61
0.19 0.17 0.17 0.14 0.16 0.17 0.15 0.14 0.21 0.22 0.24 0.24 0.25 0.22 0.19 0.29 0.33 0.37 0.41 0.47 0.49 0.52 0.56 0.58 0.55 0.53 0.55 0.55 0.53 0.50 0.45 0.42 0.41 0.39 0.37 0.37 0.44 0.49 0.55 0.56 0.55 0.55 0.61 0.61
0.12 0.10 0.08 0.15 0.23 0.28 0.28 0.15 0.26 0.25 0.22 0.20 0.22 0.13 0.16 0.29 0.35 0.40 0.45 0.49 0.49 0.50 0.54 0.58 0.59 0.62 0.58 0.54 0.52 0.50 0.47 0.45 0.43 0.40 0.39 0.38 0.44 0.49 0.52 0.55 0.55 0.55 0.57 0.59
0.10 0.10 0.13 0.21 0.25 0.28 0.14 0.14 0.21 0.22 0.21 0.21 0.20 0.23 0.26 0.33 0.38 0.44 0.47 0.46 0.48 0.47 0.49 0.55 0.59 0.61 0.55 0.55 0.52 0.53 0.52 0.48 0.43 0.42 0.40 0.40 0.44 0.50 0.51 0.53 0.53 0.53 0.53 0.57
0.12 0.10 0.08 0.21 0.23 0.15 0.16 0.20 0.20 0.22 0.23 0.24 0.26 0.27 0.32 0.37 0.40 0.44 0.44 0.44 0.44 0.42 0.43 0.48 0.53 0.52 0.51 0.49 0.53 0.53 0.51 0.49 0.46 0.43 0.42 0.41 0.42 0.48 0.50 0.51 0.50 0.50 0.51 0.52
0.12 0.10 0.15 0.18 0.17 0.20 0.23 0.23 0.26 0.30 0.32 0.33 0.32 0.35 0.41 0.40 0.41 0.43 0.42 0.42 0.42 0.41 0.41 0.45 0.47 0.49 0.43 0.47 0.50 0.49 0.47 0.45 0.44 0.43 0.42 0.42 0.40 0.45 0.48 0.50 0.48 0.47 0.48 0.48
0.14 0.14 0.16 0.20 0.23 0.24 0.26 0.28 0.33 0.37 0.39 0.40 0.38 0.40 0.39 0.38 0.38 0.38 0.38 0.37 0.37 0.36 0.36 0.37 0.41 0.44 0.45 0.46 0.48 0.46 0.44 0.44 0.45 0.43 0.41 0.43 0.43 0.44 0.48 0.49 0.47 0.46 0.46 0.46
0.13 0.15 0.19 0.21 0.26 0.28 0.32 0.35 0.37 0.40 0.42 0.41 0.40 0.38 0.37 0.35 0.35 0.35 0.34 0.35 0.34 0.32 0.32 0.33 0.37 0.39 0.42 0.44 0.46 0.44 0.45 0.44 0.44 0.43 0.42 0.43 0.43 0.43 0.48 0.52 0.50 0.47 0.47 0.47
0.11 0.17 0.19 0.20 0.28 0.36 0.35 0.36 0.39 0.40 0.39 0.40 0.38 0.36 0.37 0.35 0.35 0.33 0.32 0.32 0.30 0.30 0.30 0.30 0.31 0.31 0.34 0.38 0.41 0.42 0.43 0.43 0.42 0.42 0.43 0.44 0.43 0.43 0.51 0.54 0.53 0.53 0.51 0.50
0.18 0.23 0.23 0.28 0.35 0.38 0.37 0.37 0.38 0.38 0.38 0.35 0.36 0.37 0.35 0.32 0.31 0.29 0.28 0.27 0.27 0.27 0.29 0.29 0.29 0.29 0.31 0.32 0.35 0.36 0.38 0.42 0.42 0.42 0.43 0.44 0.44 0.43 0.42 0.51 0.53 0.53 0.52 0.51
0.25 0.26 0.26 0.33 0.32 0.39 0.38 0.38 0.38 0.38 0.37 0.35 0.35 0.32 0.28 0.25 0.25 0.25 0.25 0.26 0.27 0.28 0.28 0.29 0.28 0.27 0.30 0.32 0.32 0.32 0.34 0.38 0.43 0.44 0.44 0.44 0.44 0.43 0.43 0.46 0.46 0.47 0.51 0.51
0.28 0.32 0.34 0.38 0.40 0.36 0.38 0.36 0.34 0.32 0.33 0.33 0.32 0.29 0.26 0.23 0.22 0.22 0.25 0.26 0.27 0.28 0.28 0.28 0.26 0.27 0.30 0.31 0.30 0.31 0.31 0.33 0.38 0.44 0.45 0.45 0.45 0.44 0.43 0.44 0.47 0.47 0.48 0.50
0.33 0.37 0.39 0.35 0.33 0.34 0.33 0.32 0.31 0.30 0.31 0.32 0.31 0.29 0.26 0.26 0.25 0.25 0.26 0.26 0.26 0.26 0.27 0.25 0.25 0.28 0.30 0.31 0.30 0.30 0.31 0.33 0.36 0.42 0.45 0.44 0.45 0.44 0.43 0.41 0.44 0.46 0.46 0.47
0.33 0.32 0.35 0.33 0.33 0.32 0.32 0.33 0.33 0.34 0.35 0.34 0.33 0.33 0.30 0.28 0.26 0.25 0.25 0.26 0.27 0.28 0.27 0.25 0.25 0.29 0.30 0.31 0.31 0.31 0.31 0.32 0.34 0.39 0.44 0.44 0.43 0.43 0.43 0.41 0.41 0.45 0.47 0.49
0.39 0.38 0.36 0.34 0.33 0.33 0.33 0.34 0.34 0.35 0.35 0.36 0.35 0.32 0.28 0.27 0.25 0.25 0.25 0.25 0.26 0.26 0.25 0.23 0.24 0.25 0.27 0.29 0.31 0.32 0.32 0.33 0.34 0.36 0.42 0.43 0.42 0.43 0.43 0.42 0.40 0.43 0.46 0.48
0.39 0.37 0.37 0.36 0.36 0.36 0.35 0.35 0.36 0.36 0.36 0.35 0.33 0.30 0.29 0.28 0.28 0.27 0.27 0.25 0.24 0.22 0.22 0.24 0.23 0.22 0.22 0.26 0.29 0.32 0.33 0.34 0.35 0.37 0.42 0.43 0.43 0.43 0.42 0.41 0.40 0.41 0.45 0.46
0.36 0.38 0.38 0.38 0.39 0.38 0.36 0.37 0.35 0.33 0.32 0.32 0.31 0.30 0.29 0.29 0.29 0.29 0.28 0.26 0.27 0.25 0.25 0.25 0.23 0.22 0.21 0.23 0.26 0.30 0.32 0.34 0.36 0.38 0.42 0.42 0.42 0.42 0.43 0.41 0.40 0.41 0.43 0.45
0.35 0.35 0.33 0.33 0.32 0.33 0.33 0.32 0.30 0.29 0.29 0.30 0.29 0.28 0.29 0.28 0.30 0.30 0.28 0.26 0.28 0.28 0.27 0.26 0.26 0.24 0.23 0.22 0.23 0.25 0.28 0.32 0.36 0.38 0.41 0.41 0.41 0.41 0.40 0.41 0.40 0.41 0.41 0.44
0.30 0.28 0.27 0.27 0.26 0.27 0.29 0.29 0.29 0.29 0.28 0.28 0.29 0.29 0.28 0.28 0.28 0.27 0.27 0.26 0.26 0.27 0.26 0.27 0.27 0.26 0.24 0.22 0.23 0.22 0.25 0.28 0.34 0.39 0.40 0.42 0.41 0.40 0.40 0.40 0.39 0.41 0.41 0.44
0.24 0.24 0.24 0.23 0.21 0.22 0.25 0.25 0.24 0.25 0.25 0.26 0.26 0.25 0.25 0.25 0.24 0.22 0.19 0.22 0.24 0.23 0.22 0.24 0.25 0.25 0.24 0.23 0.23 0.22 0.22 0.24 0.28 0.36 0.40 0.42 0.42 0.42 0.41 0.41 0.41 0.42 0.41 0.43
0.23 0.23 0.24 0.24 0.23 0.22 0.20 0.22 0.23 0.25 0.25 0.25 0.24 0.24 0.23 0.21 0.21 0.22 0.21 0.20 0.19 0.18 0.18 0.20 0.22 0.22 0.22 0.22 0.23 0.23 0.22 0.22 0.25 0.30 0.39 0.42 0.43 0.43 0.43 0.43 0.42 0.43 0.43 0.44
0.25 0.24 0.23 0.22 0.21 0.21 0.21 0.22 0.22 0.21 0.21 0.20 0.21 0.21 0.20 0.20 0.19 0.18 0.18 0.18 0.17 0.16 0.15 0.17 0.16 0.16 0.17 0.18 0.19 0.22 0.22 0.21 0.23 0.26 0.32 0.40 0.42 0.43 0.43 0.44 0.44 0.44 0.44 0.44
0.20 0.20 0.19 0.19 0.18 0.19 0.20 0.19 0.18 0.19 0.18 0.16 0.16 0.16 0.16 0.16 0.15 0.15 0.15 0.15 0.15 0.14 0.13 0.13 0.13 0.13 0.13 0.13 0.14 0.19 0.20 0.20 0.21 0.24 0.28 0.35 0.41 0.42 0.43 0.44 0.44 0.44 0.45 0.45
0.16 0.16 0.16 0.16 0.17 0.18 0.18 0.17 0.16 0.15 0.15 0.14 0.13 0.13 0.13 0.13 0.13 0.13 0.12 0.12 0.12 0.12 0.12 0.12 0.12 0.12 0.13 0.13 0.13 0.14 0.16 0.19 0.21 0.23 0.25 0.29 0.37 0.41 0.43 0.44 0.45 0.45 0.46 0.46
Wind_Speed
35 37 37 37 37 38 38 39 38 45 47 45 40 41 41 41 42 42 43 42 43 44 39 31 24 18 14 13 14 14 16 17 18 20 21 22 24 27 32 37 37 38 43 47
34 34 35 39 38 39 42 44 45 45 46 37 38 38 38 39 40 40 37 33 29 26 18 14 13 14 12 13 14 14 15 17 19 21 22 24 27 31 35 37 39 42 39 39
32 30 35 37 35 37 38 39 40 39 38 34 34 35 35 35 32 31 27 23 21 19 15 12 11 11 14 14 13 14 16 19 21 23 25 27 28 33 34 32 35 41 42 38
31 33 33 31 33 34 37 37 36 34 32 29 29 27 27 25 23 24 19 19 18 16 14 11 10 11 13 13 12 14 17 20 23 24 26 27 29 31 26 25 26 29 37 40
30 33 39 38 35 34 33 34 29 28 27 25 25 24 22 20 22 21 17 17 17 15 14 12 13 11 9 9 12 15 18 20 22 24 26 27 27 27 24 22 19 18 23 30
29 30 32 28 30 31 29 28 21 20 22 22 23 23 22 22 23 18 16 17 16 14 12 11 11 9 9 12 14 16 18 20 23 24 26 27 26 25 23 19 15 12 13 19
27 27 29 25 24 22 19 23 24 22 25 24 24 25 26 24 18 16 16 15 15 14 12 12 12 12 12 14 17 18 19 21 23 24 26 26 25 23 22 18 12 11 12 15
21 20 24 19 21 20 24 25 25 24 25 26 26 24 19 15 15 13 13 13 13 13 13 13 14 14 16 17 17 18 20 21 24 25 25 25 23 22 20 15 9 9 12 14
16 16 18 19 18 18 16 17 16 14 14 13 12 11 10 12 11 10 10 11 12 12 13 13 15 16 18 19 20 22 24 25 26 25 24 24 23 19 17 13 8 6 9 12
14 12 14 16 15 13 11 12 11 12 16 13 10 8 9 9 8 8 9 10 11 12 13 14 15 17 19 21 23 24 26 26 26 25 24 23 21 18 14 11 7 5 8 11
15 15 13 11 11 11 12 11 10 11 11 9 7 7 8 8 8 8 9 10 11 12 14 15 17 19 21 23 24 25 26 26 25 25 23 22 19 15 12 9 7 5 8 11
11 11 10 12 12 13 14 12 10 10 9 9 8 9 8 8 8 9 9 10 11 13 15 16 18 20 21 22 23 23 23 23 23 22 20 19 16 13 11 8 6 5 6 12
13 13 14 13 12 13 10 10 10 9 9 9 9 9 9 9 9 10 10 12 13 15 16 17 20 21 22 24 23 24 24 25 23 22 20 19 17 13 9 7 6 6 7 10
16 14 14 12 13 12 12 12 12 12 11 10 9 9 10 11 11 12 13 14 16 17 18 19 21 23 24 25 25 25 25 25 23 22 21 18 16 15 12 10 8 8 10 12
15 14 14 14 14 13 13 13 13 13 12 11 11 13 13 14 14 15 16 18 19 19 20 21 23 24 26 26 26 26 26 26 24 23 20 17 17 17 16 15 14 13 13 14
15 16 16 16 15 15 16 16 16 16 15 15 16 17 17 18 19 19 20 21 21 22 22 24 25 26 27 28 28 27 27 27 25 22 18 15 15 17 19 19 18 19 17 18
17 18 19 18 19 19 19 19 20 20 19 20 21 22 23 23 23 23 24 24 24 24 25 26 27 29 29 29 29 29 28 26 25 22 18 15 14 16 21 21 21 22 21 22
18 19 20 20 21 21 22 22 22 23 24 25 25 26 26 26 26 26 26 27 27 27 28 29 29 30 30 30 30 30 28 25 24 22 19 16 15 16 20 23 23 24 24 25
18 19 20 22 23 23 24 25 26 27 29 30 30 30 30 30 30 29 29 29 29 29 30 30 30 31 30 30 30 29 26 23 21 20 17 15 15 16 19 24 25 26 28 28
21 22 24 25 26 27 29 30 31 33 33 34 34 34 34 34 34 33 33 32 31 31 32 32 31 30 29 27 26 24 22 20 19 18 15 13 14 16 19 24 27 27 29 30
28 29 30 31 32 33 33 35 36 37 37 37 37 37 37 36 35 34 33 33 32 33 33 32 30 28 27 26 24 22 21 19 17 16 15 13 13 14 17 23 27 28 29 31
32 32 33 34 34 36 37 38 38 38 38 37 37 36 35 34 34 35 35 35 36 35 35 33 32 30 28 27 24 23 21 19 17 16 15 13 12 10 12 18 24 27 28 30
32 33 34 34 35 36 36 36 36 36 35 34 33 33 33 34 35 36 36 36 36 36 35 33 32 31 30 27 25 23 21 20 18 16 15 14 12 11 11 14 20 24 27 28
34 35 35 36 36 36 35 35 34 33 32 32 32 33 34 35 35 35 36 36 36 36 35 34 33 32 31 29 27 25 23 21 19 17 16 15 14 13 13 14 16 20 24 27
35 35 36 36 35 34 33 34 33 33 33 34 35 36 37 37 37 39 39 38 37 36 35 34 33 33 32 30 29 27 25 23 21 19 18 16 15 15 15 16 17 19 22 25
35 34 33 33 33 32 32 31 31 32 34 35 36 37 38 40 41 41 41 40 39 37 35 34 33 33 32 31 30 29 27 25 23 22 20 19 18 17 17 18 19 20 22 24
32 30 29 28 27 27 27 28 29 30 32 33 34 35 37 38 39 40 40 40 40 39 38 36 34 33 32 32 31 30 29 27 26 24 22 22 21 20 20 19 20 21 22 23
Wind_Direction
286 287 288 286 286 286 283 282 281 286 284 287 290 291 293 295 298 300 303 303 305 306 299 285 276 269 267 273 276 292 299 303 303 302 302 294 286 280 278 270 265 260 254 251
291 287 285 286 287 284 284 284 284 286 286 289 289 291 294 296 300 302 303 308 310 322 318 292 268 260 266 275 276 290 300 305 308 309 306 304 297 293 288 276 266 257 253 251
291 293 295 291 288 284 286 288 289 289 292 293 294 296 297 298 299 302 305 310 317 320 318 316 266 262 265 277 279 290 302 308 313 313 311 310 308 306 297 282 271 257 247 245
291 295 288 293 294 293 291 290 289 289 290 292 295 298 301 302 301 304 300 307 315 316 316 317 305 284 269 275 280 296 305 311 315 317 316 316 315 317 306 293 285 263 243 238
288 289 292 293 296 296 296 293 287 288 290 291 297 300 303 301 306 302 301 301 308 305 309 308 312 301 275 278 291 303 309 313 318 321 321 321 322 323 317 303 292 275 241 230
292 292 292 298 299 301 299 293 294 286 288 291 299 299 296 301 304 299 302 302 303 307 306 313 320 311 295 293 297 306 310 315 320 322 324 324 324 327 325 312 289 271 237 224
291 290 294 295 297 299 298 295 296 289 289 291 290 291 293 296 298 299 302 305 306 305 305 308 309 312 301 298 301 305 309 315 320 323 325 326 326 327 328 322 291 254 235 225
297 300 298 294 299 295 293 297 296 293 291 289 290 290 289 293 300 302 305 315 310 311 309 307 307 307 306 305 302 303 308 310 316 320 322 324 325 326 329 327 304 251 232 223
291 295 301 304 303 306 306 307 312 314 317 312 305 300 300 305 306 309 306 317 324 320 316 312 313 311 311 309 303 302 303 305 308 312 316 319 320 320 325 327 314 261 225 216
304 307 305 310 312 313 314 312 321 329 324 306 303 306 309 315 317 319 318 318 322 327 326 324 322 319 315 314 310 304 302 301 302 306 309 311 312 312 316 315 305 261 217 208
289 298 304 310 315 318 318 312 309 321 328 326 321 322 318 320 323 327 328 330 330 332 331 329 328 326 324 322 318 314 308 302 299 299 301 302 302 304 300 299 287 259 218 201
286 283 295 301 308 311 308 308 305 306 310 313 315 313 316 317 319 323 324 328 333 334 333 335 335 333 332 329 327 324 319 313 306 300 297 294 292 291 289 280 261 236 202 193
280 285 292 292 297 303 299 296 299 300 302 301 304 306 310 310 313 316 319 323 324 325 326 330 332 333 332 330 328 327 324 318 311 303 294 285 278 268 267 262 228 199 177 168
279 286 288 285 291 288 286 292 296 292 290 293 297 301 304 304 305 309 311 314 315 317 319 321 327 328 328 327 327 325 326 325 316 310 299 281 263 251 243 231 214 198 184 170
277 275 281 287 283 282 284 290 290 286 285 286 291 294 297 297 299 301 304 307 308 309 312 316 320 322 324 325 324 323 324 325 322 316 305 285 257 243 233 226 216 207 194 186
275 277 278 279 277 278 281 283 284 284 283 283 287 291 291 292 294 296 299 302 304 304 307 312 315 317 318 320 321 321 319 320 321 318 307 286 265 241 227 222 218 212 208 200
275 278 278 278 277 278 280 281 281 280 280 282 285 286 288 289 291 292 294 296 299 299 303 307 309 312 313 314 315 315 314 313 316 314 303 287 267 243 227 221 218 213 210 205
279 279 278 277 278 278 279 279 280 279 280 281 283 285 285 285 287 290 292 293 295 296 299 303 305 309 310 311 311 311 309 307 309 310 302 283 262 247 231 222 219 214 211 207
284 283 282 281 281 281 280 281 283 283 282 281 281 283 283 283 284 286 289 290 292 294 296 299 302 307 308 310 311 309 306 301 303 306 303 276 258 250 238 225 220 216 211 208
290 290 289 287 285 283 283 283 284 285 284 282 280 280 282 282 282 283 284 286 287 291 295 295 297 300 305 309 313 312 309 300 299 300 297 284 268 259 243 227 219 216 212 210
292 291 290 288 286 285 284 285 285 285 284 283 281 280 279 280 280 280 282 283 285 288 290 292 292 295 297 302 307 309 309 304 296 297 289 286 278 270 243 225 217 214 212 210
293 292 292 290 289 287 287 286 285 285 284 283 282 280 278 279 279 280 281 281 284 285 285 285 285 287 290 293 294 299 301 302 294 291 286 278 277 268 240 220 214 213 211 210
295 294 294 292 292 291 290 289 288 286 286 284 282 280 279 279 280 280 280 282 283 282 282 280 280 281 283 284 286 287 291 292 290 283 282 273 265 255 240 223 215 213 211 210
297 297 295 294 294 293 292 291 290 288 286 284 282 281 281 281 280 281 281 282 282 281 279 277 276 276 277 277 277 278 279 281 281 278 273 269 259 250 238 227 217 214 212 213
300 299 299 298 296 293 292 291 289 288 286 286 284 283 282 281 280 281 281 280 280 280 277 274 273 272 271 271 270 270 271 271 270 269 265 261 256 247 239 231 223 218 214 213
303 302 300 299 297 295 295 294 292 291 290 289 287 285 284 282 281 280 278 277 277 276 274 272 271 269 268 266 265 263 263 263 262 261 258 255 252 246 239 233 228 223 220 219
305 304 304 304 303 302 302 301 300 298 296 295 292 291 289 287 285 283 280 276 273 271 270 269 268 266 265 263 262 259 258 257 255 254 254 250 248 244 239 235 231 227 224 222